Wind_Speed
23 22 21 19 21 23 24 20 17 18 17 16 16 16 16 16 15 15 14 14 15 16 17 18 19 20 21 22 23 24 24 25 24 24 24 25 25 26 27 27 27 27 28 28 28 28 27 27 28 29 30 30 29 29 29 29 29 30 30 29 28 28 28
22 22 21 19 20 23 22 19 17 18 17 16 16 16 16 15 15 14 14 14 15 16 17 18 19 20 22 23 24 24 25 25 25 25 25 25 26 26 27 28 28 28 29 29 29 29 29 27 27 28 29 29 29 29 27 27 28 29 30 30 28 27 26
21 21 21 20 20 22 21 18 17 17 16 16 16 16 16 15 15 14 14 14 15 16 18 19 20 21 22 22 23 24 24 25 25 25 26 26 27 27 28 29 29 29 30 30 30 30 30 28 28 28 28 27 26 27 27 27 29 29 29 29 28 26 25
19 20 21 21 20 20 21 18 17 17 15 15 16 16 16 15 15 14 14 15 16 17 18 19 20 21 21 21 22 23 24 24 25 26 27 27 28 28 29 29 30 30 30 30 31 31 30 29 28 28 29 28 27 27 28 28 28 29 28 28 27 26 25
20 20 21 21 21 22 21 18 17 16 15 15 16 17 16 15 15 14 15 16 16 18 19 20 20 20 20 20 21 22 23 24 25 26 27 28 28 29 30 30 31 31 31 31 31 31 31 30 29 28 29 28 27 28 28 27 27 29 29 28 26 25 25
23 22 22 22 22 25 24 20 17 15 14 15 16 17 16 15 15 15 16 16 17 18 19 19 19 19 19 20 21 23 24 25 26 26 27 28 29 29 30 31 32 32 32 32 31 31 31 30 30 29 29 29 28 28 28 27 26 28 29 29 27 24 23
22 23 22 22 24 25 23 19 17 15 14 16 17 17 17 16 16 16 16 17 18 18 19 19 18 19 19 21 22 24 25 26 26 27 28 28 29 29 30 31 32 33 33 32 32 31 31 31 30 29 29 29 29 29 28 28 27 26 27 28 27 24 22
19 22 23 23 25 25 19 16 16 15 16 18 18 17 17 16 17 17 17 17 18 18 18 19 19 20 21 23 24 25 25 26 26 27 27 28 29 29 29 30 31 32 33 33 32 32 31 31 31 31 30 29 29 28 28 28 28 27 25 26 27 23 20
14 18 21 22 24 21 15 15 17 17 19 19 17 17 17 17 17 17 18 18 18 18 19 19 20 21 23 24 25 25 25 25 26 26 26 27 28 29 30 30 31 32 32 33 33 32 32 32 31 31 31 30 29 28 27 28 29 29 26 25 25 23 20
11 15 18 21 22 16 12 15 18 19 19 18 16 17 17 17 18 18 18 18 18 18 19 20 21 23 24 25 24 24 25 25 25 25 26 27 28 29 30 30 31 31 32 32 33 32 32 32 32 31 31 31 30 29 27 26 28 29 27 25 24 22 20
14 15 17 21 22 17 13 16 20 20 19 17 16 17 17 18 18 19 19 19 19 19 20 21 22 23 24 24 24 24 23 24 24 25 26 27 28 29 29 30 30 30 31 32 32 33 33 33 33 32 32 31 31 31 29 27 27 29 28 26 24 23 21
15 15 17 20 21 18 15 19 21 20 18 17 17 17 18 18 19 19 20 19 20 20 21 22 23 23 24 23 23 23 24 25 26 26 28 28 29 29 29 29 30 30 31 31 32 33 33 33 33 32 32 32 31 31 31 28 27 29 28 26 25 25 23
16 17 18 20 21 19 18 20 21 20 18 17 17 18 18 19 20 20 20 20 21 21 22 23 23 23 23 23 23 24 25 26 27 28 28 28 28 28 28 29 29 30 31 31 32 33 33 33 33 33 32 32 31 30 31 30 28 28 29 26 25 26 25
17 19 19 20 21 20 19 20 21 19 18 18 18 19 19 19 19 19 20 21 21 22 22 23 24 24 24 24 24 25 25 26 27 28 28 28 28 28 28 29 30 31 31 32 33 33 34 34 34 33 32 32 31 30 30 30 28 28 29 27 25 25 26
15 17 18 20 21 20 19 20 20 19 18 19 19 19 19 19 19 19 20 21 22 22 23 24 24 24 24 24 25 25 26 27 27 28 28 29 29 28 29 30 31 32 32 32 33 33 33 34 34 34 33 31 31 30 29 30 28 27 28 28 26 25 25
14 16 18 19 20 19 19 20 20 19 19 19 20 20 19 18 19 20 21 22 23 23 24 25 25 25 24 25 25 26 26 27 28 28 29 29 29 30 30 31 32 32 32 32 33 32 33 33 33 33 33 31 31 30 29 29 29 27 26 27 27 25 25
14 16 16 17 18 18 19 19 19 19 19 19 19 19 18 19 20 21 22 23 23 24 25 26 26 25 25 25 26 26 27 28 28 29 29 29 30 30 31 32 32 32 33 33 33 33 32 33 33 32 32 31 30 30 29 28 28 27 26 26 26 25 25
13 14 15 15 16 17 18 19 19 19 18 18 18 18 18 20 21 22 23 24 24 25 26 26 26 25 26 26 27 27 28 29 29 29 29 29 30 31 31 32 32 32 32 32 32 32 32 32 32 31 31 31 30 29 28 27 27 27 26 25 25 25 24
12 13 13 14 15 16 17 18 18 18 17 17 17 18 19 21 22 23 24 25 26 26 27 27 26 26 27 27 28 29 29 30 30 30 30 30 30 31 31 32 32 32 32 32 32 32 32 31 31 31 30 30 29 28 28 27 26 27 27 25 25 25 24
12 13 13 14 15 16 17 17 18 18 17 17 18 19 20 22 23 24 25 26 27 27 27 27 27 28 28 29 29 30 30 30 30 30 30 31 31 31 31 31 32 32 32 32 32 32 31 31 30 30 30 29 28 28 27 27 26 27 27 26 25 25 24
12 13 14 15 16 17 17 18 18 18 18 19 20 21 22 23 24 25 26 27 28 28 28 28 29 29 29 29 30 30 30 30 30 30 30 30 31 31 31 31 31 31 31 32 32 31 31 31 30 30 29 28 28 27 26 26 26 26 26 27 26 25 25
14 14 15 15 16 17 18 18 19 19 19 20 21 22 23 25 26 27 28 29 29 29 29 29 30 30 30 30 30 30 31 31 30 30 30 30 30 29 29 30 30 31 31 31 31 31 30 30 30 29 28 28 27 27 26 26 26 26 26 26 26 25 25
16 16 16 16 16 16 18 19 20 20 20 21 23 24 25 26 28 29 30 30 30 30 30 30 31 31 31 31 31 31 31 31 31 30 30 29 29 29 29 30 30 31 31 31 30 30 29 29 29 28 28 27 27 26 26 25 25 25 25 25 26 26 25
18 18 18 17 17 17 18 19 20 21 21 23 24 26 27 28 30 30 30 30 30 30 31 31 31 31 31 31 31 32 32 32 31 31 30 30 29 29 30 30 30 31 31 30 30 29 28 28 27 27 27 27 26 26 26 25 25 25 24 24 24 25 25
19 19 19 19 18 19 20 21 21 22 23 24 26 27 29 30 31 31 30 31 31 31 31 32 32 32 31 31 32 32 32 32 31 31 30 30 30 30 31 31 31 31 30 30 29 29 28 28 27 27 27 26 26 26 26 26 25 25 24 23 23 24 24
20 20 20 19 19 20 20 20 21 22 24 25 27 29 31 31 31 31 31 31 31 32 32 32 32 32 32 32 32 32 31 31 30 30 30 30 31 31 32 32 32 31 31 30 29 28 28 27 27 27 27 27 26 26 26 25 25 25 24 24 23 23 23
20 21 20 18 16 16 16 17 19 22 24 26 29 30 31 32 32 32 32 32 32 32 32 32 32 32 31 31 31 31 31 30 30 30 30 30 31 31 32 32 32 32 31 30 29 28 28 27 27 28 28 28 27 27 26 25 25 25 24 24 23 23 23
17 16 17 15 14 13 16 19 21 23 25 27 29 30 31 32 32 32 32 32 32 32 32 32 32 31 31 31 31 30 30 29 29 30 30 31 31 32 32 32 31 31 30 29 29 29 29 29 29 29 29 29 28 27 26 25 25 25 24 24 24 23 23
12 9 11 13 15 18 21 22 22 23 25 27 29 31 32 33 32 32 32 32 32 32 32 32 31 31 31 31 30 29 29 29 29 30 30 31 31 31 31 30 30 30 29 29 29 29 30 30 30 29 29 28 27 26 26 25 25 25 24 24 23 23 22
8 8 10 14 18 21 22 21 22 23 24 26 28 30 31 32 32 31 32 32 32 32 32 31 30 30 30 30 30 29 29 29 30 30 31 31 31 30 30 30 30 30 29 29 29 29 29 29 28 28 28 27 27 26 26 26 25 25 25 25 24 24 23
8 10 12 15 17 18 19 19 20 21 24 26 28 29 30 31 31 31 31 32 32 32 31 31 30 30 29 29 29 29 29 30 30 31 31 31 30 30 30 30 30 30 29 29 28 28 27 27 27 28 28 28 29 29 29 28 28 28 28 27 27 26 25
9 11 12 14 14 15 16 17 18 21 24 26 27 27 28 29 29 30 31 31 31 31 30 29 29 30 30 29 29 29 30 30 30 30 30 30 30 30 30 29 29 28 28 27 27 27 27 28 29 29 30 31 32 32 32 32 32 31 30 29 29 28 28
11 12 13 13 14 15 16 17 19 21 23 24 24 26 27 28 29 30 30 30 30 29 29 29 29 29 29 29 29 30 30 30 30 30 30 29 29 29 28 28 27 27 27 27 27 28 29 30 31 32 33 33 33 33 33 33 32 31 30 30 29 28 28
13 14 15 16 17 18 18 19 21 22 23 24 24 26 27 28 29 29 29 29 28 28 28 29 29 28 29 29 30 29 29 29 29 29 29 28 27 27 27 27 26 27 27 28 29 30 31 32 32 33 33 32 32 32 31 31 30 30 29 28 27 27 26
15 16 18 20 20 20 21 22 23 23 24 25 25 26 27 28 29 29 28 28 28 28 29 29 29 29 29 29 29 28 29 28 28 28 27 27 27 27 27 27 28 29 29 30 30 31 31 32 32 31 31 31 30 30 29 29 29 28 27 27 26 25 25
17 19 21 22 22 22 22 23 23 24 25 25 25 26 27 28 28 28 27 27 28 28 29 29 29 29 28 28 27 27 27 27 27 27 27 27 27 28 28 29 29 30 30 30 31 31 31 31 30 30 30 29 29 28 27 27 27 27 27 26 26 25 25
20 21 22 23 23 23 23 23 24 25 25 25 25 26 27 27 27 26 26 27 28 28 28 28 28 27 27 27 27 27 26 26 26 27 27 28 28 29 29 29 29 30 30 30 30 30 30 30 29 29 28 28 27 27 27 27 27 27 26 26 26 26 25
Wind_Direction
263 261 261 261 257 247 236 230 231 233 238 241 245 249 250 254 257 261 267 273 281 288 295 301 304 305 305 305 306 306 306 306 305 305 306 307 308 308 308 308 308 309 310 312 313 315 318 320 322 323 324 326 325 322 320 319 319 318 316 314 311 305 298
259 258 259 257 255 250 233 222 224 229 234 239 243 248 251 254 257 262 269 276 284 291 296 300 302 304 305 306 307 307 307 306 306 306 307 308 308 308 309 308 309 309 310 310 311 312 315 318 321 322 324 327 326 324 324 325 325 322 318 314 311 304 298
254 254 254 252 256 247 222 213 224 227 231 238 242 248 252 255 259 264 271 278 286 292 296 299 301 303 305 306 306 306 306 306 306 307 308 308 309 309 308 308 308 308 308 308 308 310 313 317 320 321 323 326 326 322 323 326 327 324 321 316 311 305 300
252 248 244 245 254 239 212 212 224 222 228 237 242 249 252 255 260 266 274 282 289 293 297 299 301 303 305 306 306 306 306 306 307 307 308 308 308 307 307 306 306 305 305 305 306 309 312 316 319 321 323 326 325 322 321 323 324 324 323 319 313 306 301
254 246 239 240 245 233 219 222 226 222 227 235 242 249 252 256 263 270 278 285 290 293 296 298 300 303 305 306 307 307 306 306 306 306 306 307 307 306 306 306 305 304 304 304 305 307 311 314 318 320 322 324 325 323 323 324 324 323 323 322 315 306 302
252 244 235 232 236 235 232 230 228 227 229 235 244 249 252 259 265 272 280 285 289 292 294 297 300 302 304 306 306 306 305 305 305 305 305 306 306 306 305 305 304 303 303 304 305 307 309 313 316 319 321 323 325 325 324 325 325 324 323 323 317 307 303
252 239 228 226 231 232 229 229 234 234 230 236 243 248 254 261 268 275 281 285 288 291 293 296 299 301 304 305 305 305 304 304 305 305 305 305 304 304 304 304 303 303 303 304 305 306 308 311 315 318 321 323 325 326 325 324 324 325 326 325 320 310 304
256 236 222 222 221 219 224 236 241 237 233 236 241 247 256 264 271 277 280 284 287 289 292 295 298 302 304 305 305 304 304 305 306 306 305 304 304 304 304 304 304 304 304 304 305 306 308 311 314 317 319 321 324 326 326 324 322 325 329 328 323 315 305
254 229 219 213 206 211 231 242 238 235 234 236 241 250 260 267 273 277 279 282 285 287 291 295 299 303 305 305 305 305 305 306 307 306 306 305 305 305 305 305 305 305 304 304 305 307 308 311 313 316 318 319 321 324 326 324 321 324 328 329 326 319 306
227 216 214 206 207 226 243 233 234 236 235 238 247 256 265 270 273 275 277 279 282 287 292 297 302 305 306 306 306 306 307 307 307 307 307 306 306 306 306 306 305 306 305 305 306 307 309 311 313 315 317 318 320 321 324 325 321 322 326 328 326 322 310
212 206 206 208 224 247 243 229 237 240 239 244 252 260 267 269 270 272 274 277 282 288 294 299 304 306 307 307 308 308 308 307 307 308 308 308 307 307 306 306 307 307 306 306 306 307 308 310 312 314 316 317 318 319 322 325 323 321 324 327 325 323 316
211 206 208 221 239 249 235 232 240 242 244 250 255 262 266 267 268 270 272 278 284 290 296 301 305 306 306 307 308 308 308 308 308 308 308 308 308 308 308 308 308 308 307 306 305 306 307 310 311 313 315 316 317 318 320 324 324 322 323 326 325 323 319
215 219 227 238 246 242 232 234 240 244 248 253 259 264 266 265 266 268 273 281 287 293 299 303 305 306 305 305 306 308 308 309 309 309 309 308 308 309 309 309 309 308 307 306 306 307 308 309 311 312 314 315 315 317 318 322 325 323 322 324 324 322 321
220 228 237 243 243 238 233 235 241 246 251 257 262 266 266 265 266 270 278 285 290 297 302 305 305 304 303 302 305 308 309 309 310 309 310 309 309 309 309 309 309 308 307 307 307 307 308 309 311 312 313 314 315 317 317 320 323 323 321 322 323 321 321
234 239 243 244 241 235 231 236 242 247 254 260 265 267 267 267 270 276 282 288 294 300 303 304 303 302 301 301 305 308 310 311 311 311 311 311 310 310 309 308 308 307 307 307 307 307 308 309 310 312 314 315 316 317 317 318 321 323 321 321 322 322 322
253 251 247 241 235 230 230 235 242 249 256 262 266 269 270 271 275 281 286 292 297 301 302 302 301 300 300 302 306 309 311 312 312 312 312 312 311 311 310 309 309 308 308 307 307 307 308 309 310 312 314 315 316 317 318 317 319 321 321 320 321 322 321
255 249 240 233 229 228 230 236 244 251 257 262 267 270 271 274 279 284 289 294 298 300 301 300 299 299 300 303 307 310 312 313 313 312 312 312 312 311 311 311 310 310 309 309 308 308 309 310 311 312 313 315 316 317 318 317 317 318 320 320 320 322 321
245 240 234 230 230 231 235 241 248 253 258 262 265 267 270 276 282 287 291 296 299 300 299 298 298 299 301 305 309 311 313 314 314 314 313 314 313 313 312 312 311 310 310 309 309 310 310 311 311 312 313 315 316 317 318 317 316 317 318 320 320 321 322
242 243 241 239 237 240 244 249 253 255 257 260 262 266 273 279 285 289 294 297 298 298 297 296 297 300 303 307 310 312 314 315 315 315 315 315 314 313 312 311 311 310 310 310 309 310 310 310 311 312 313 315 316 317 317 318 317 317 318 319 320 320 321
245 249 252 251 248 247 248 252 254 255 256 258 261 268 275 281 286 291 294 295 294 294 294 295 298 302 305 308 311 313 315 316 316 315 315 314 313 312 312 311 310 310 310 310 309 309 309 310 311 312 313 314 316 317 317 318 318 317 317 318 319 320 321
245 250 255 256 254 252 251 252 253 254 256 259 264 271 278 283 287 289 290 291 291 292 293 295 299 303 307 309 311 313 315 316 316 314 313 312 312 312 312 311 310 310 310 310 309 309 309 309 310 311 312 313 315 316 316 316 317 316 316 316 317 319 320
247 253 256 257 258 257 256 255 256 257 259 264 270 276 280 282 284 286 287 289 289 291 293 296 301 305 308 310 311 313 314 314 314 312 311 311 312 312 311 311 310 309 309 309 309 309 309 309 310 311 312 313 314 315 315 315 316 316 315 315 316 317 319
255 259 260 258 259 260 261 261 261 263 265 270 275 278 279 280 282 283 285 287 288 291 295 299 303 306 308 310 311 312 313 313 312 312 312 312 312 312 311 310 310 309 308 308 308 309 309 310 310 311 312 313 313 314 315 315 315 315 315 315 315 316 316
261 264 263 259 255 256 258 259 261 263 268 273 276 278 278 279 280 282 284 287 290 293 297 301 303 306 307 309 310 310 311 312 312 312 313 312 312 311 311 310 309 309 309 309 309 310 310 311 312 313 314 314 315 315 316 316 316 316 316 316 315 315 314
263 263 263 261 256 253 255 256 259 263 267 272 274 275 276 276 278 281 285 288 291 294 297 300 303 305 306 307 307 308 310 311 312 312 312 311 311 310 310 310 310 310 310 310 311 311 312 313 314 315 316 316 317 317 317 318 318 318 319 318 317 315 314
263 263 265 264 257 253 255 258 260 263 266 269 271 273 274 276 280 283 286 289 291 294 297 299 301 303 305 305 306 307 309 310 310 310 309 309 309 310 310 310 310 311 311 311 311 312 313 314 315 316 316 317 317 318 318 319 319 320 320 320 319 317 315
265 264 265 259 248 248 257 262 263 264 266 268 271 273 276 279 282 284 285 287 290 293 296 298 300 302 303 304 305 306 307 308 308 307 307 308 308 309 310 310 310 311 311 312 312 313 314 314 315 315 315 316 317 317 317 318 318 318 318 318 318 317 316
268 268 262 247 237 252 269 270 266 264 265 267 271 274 277 280 281 282 284 287 289 292 295 297 300 302 302 303 304 305 306 306 305 306 306 307 308 309 309 309 310 310 311 312 313 313 313 313 314 314 314 315 316 317 317 317 316 316 316 316 317 316 316
261 270 259 241 241 257 269 270 266 263 263 266 270 273 276 278 279 282 284 287 289 292 295 297 299 300 301 302 303 304 304 303 304 304 305 306 307 307 308 308 309 309 310 311 311 312 312 313 313 315 315 316 317 318 318 318 318 318 317 317 316 316 314
258 265 257 247 250 258 263 265 263 263 265 267 270 272 274 277 279 282 284 287 290 293 295 297 298 300 301 301 302 302 302 302 303 304 305 305 306 306 306 307 307 308 309 310 310 311 312 313 314 316 316 317 318 319 320 320 319 319 318 317 317 316 315
271 262 254 250 252 257 260 263 265 266 267 268 269 271 274 277 280 282 284 288 291 293 294 296 298 299 300 300 300 301 301 302 302 303 304 305 305 305 305 305 306 307 308 309 311 312 313 315 315 316 316 317 317 317 317 317 316 316 316 315 315 315 314
269 257 251 250 253 258 264 267 268 267 267 269 271 273 275 277 279 282 285 287 289 291 294 297 299 299 299 299 299 300 301 301 302 303 303 304 304 304 304 305 306 308 309 311 312 313 314 315 315 315 315 315 315 315 314 314 313 313 313 313 312 311 311
264 254 250 253 262 269 271 270 270 270 270 272 274 275 275 277 279 282 284 286 288 291 294 296 298 298 299 299 299 299 301 301 302 303 303 303 303 304 305 306 308 309 311 312 313 313 313 313 313 314 314 314 314 314 313 313 313 313 313 312 312 311 310
261 256 257 265 272 275 273 271 271 273 274 275 275 275 276 277 279 281 283 286 289 293 295 296 297 297 297 298 299 299 300 301 301 301 302 303 304 305 306 307 308 310 311 311 312 312 313 314 314 314 314 314 314 314 314 313 313 313 313 313 312 311 310
259 259 264 269 273 273 271 271 273 276 276 275 276 277 278 279 279 281 285 289 292 294 296 295 295 295 296 297 298 298 299 300 300 301 302 304 305 305 306 308 309 310 311 312 313 314 314 315 315 314 314 314 314 314 314 314 314 314 314 313 313 312 311
265 266 268 271 272 272 271 273 276 276 275 276 277 277 278 278 281 284 288 292 293 294 294 293 293 294 295 296 297 298 299 300 301 302 303 304 306 307 308 309 311 312 313 314 315 315 315 315 315 315 315 315 315 315 315 314 315 314 314 314 313 313 312
267 268 270 271 271 272 274 276 277 275 274 274 275 276 277 279 283 287 290 290 291 290 289 290 292 293 294 295 297 298 299 301 302 303 304 306 307 308 310 311 313 314 315 316 315 315 315 315 316 316 316 316 316 315 315 315 315 315 315 314 313 313 312
Height
5817 5818 5819 5821 5822 5822 5822 5822 5823 5824 5825 5826 5827 5828 5828 5828 5828 5828 5828 5828 5828 5827 5827 5826 5825 5824 5823 5822 5821 5820 5819 5818 5817 5815 5814 5812 5810 5809 5807 5806 5805 5804 5802 5801 5799 5799 5799 5797 5794 5791 5790 5788 5786 5783 5780 5777 5774 5772 5771 5771 5770 5768 5766
5815 5816 5817 5818 5820 5821 5821 5819 5819 5821 5823 5823 5825 5825 5826 5826 5826 5826 5826 5825 5825 5825 5825 5824 5823 5822 5821 5820 5818 5817 5816 5815 5814 5813 5811 5810 5808 5807 5805 5804 5802 5801 5799 5798 5797 5796 5795 5795 5793 5790 5788 5786 5783 5780 5778 5776 5773 5769 5767 5766 5766 5764 5763
5812 5813 5814 5815 5817 5819 5819 5818 5817 5819 5821 5822 5823 5823 5824 5824 5824 5824 5824 5823 5823 5823 5823 5822 5821 5820 5818 5817 5816 5815 5814 5812 5811 5810 5809 5807 5806 5805 5804 5802 5800 5799 5797 5796 5794 5793 5792 5791 5790 5788 5786 5784 5782 5778 5776 5774 5771 5768 5765 5762 5761 5760 5759
5810 5810 5811 5813 5814 5816 5817 5816 5816 5817 5819 5820 5821 5822 5822 5822 5822 5822 5821 5821 5821 5821 5820 5820 5818 5817 5816 5815 5814 5812 5811 5810 5809 5807 5806 5805 5804 5802 5801 5800 5798 5797 5795 5794 5792 5790 5789 5788 5787 5785 5782 5781 5779 5776 5774 5771 5768 5765 5762 5760 5757 5756 5755
5807 5808 5809 5810 5812 5814 5815 5815 5815 5815 5816 5817 5819 5820 5820 5820 5820 5820 5819 5819 5819 5819 5818 5817 5816 5815 5814 5812 5811 5810 5809 5808 5807 5805 5804 5803 5801 5800 5799 5797 5795 5794 5793 5791 5789 5788 5786 5785 5784 5782 5780 5778 5776 5774 5771 5769 5766 5762 5759 5757 5755 5753 5751
5804 5805 5807 5808 5810 5812 5813 5814 5814 5814 5814 5815 5817 5818 5818 5818 5818 5818 5817 5817 5817 5816 5816 5815 5814 5813 5811 5810 5809 5808 5807 5805 5804 5803 5802 5800 5799 5797 5796 5794 5792 5791 5789 5788 5787 5785 5784 5782 5781 5779 5777 5775 5773 5771 5768 5766 5763 5760 5757 5754 5751 5749 5748
5800 5802 5804 5806 5808 5810 5812 5813 5813 5813 5813 5814 5815 5816 5816 5816 5816 5816 5815 5815 5815 5814 5814 5813 5812 5810 5809 5808 5807 5806 5804 5803 5802 5801 5799 5798 5796 5795 5793 5792 5790 5788 5786 5785 5784 5782 5781 5779 5778 5776 5775 5773 5770 5768 5765 5763 5761 5758 5755 5751 5748 5746 5745
5797 5799 5802 5803 5805 5808 5811 5812 5812 5812 5812 5812 5813 5813 5814 5814 5814 5813 5813 5813 5812 5812 5811 5811 5810 5808 5807 5806 5805 5803 5802 5801 5799 5798 5797 5795 5793 5792 5791 5789 5787 5785 5783 5782 5780 5779 5778 5776 5775 5773 5772 5770 5768 5766 5763 5759 5757 5755 5753 5750 5746 5744 5743
5796 5797 5799 5801 5803 5807 5808 5809 5810 5811 5810 5810 5811 5811 5812 5812 5812 5811 5811 5811 5810 5810 5809 5809 5807 5806 5805 5804 5803 5801 5800 5798 5797 5796 5794 5792 5791 5789 5788 5786 5784 5782 5781 5779 5777 5776 5774 5773 5772 5770 5768 5767 5766 5764 5761 5757 5753 5752 5751 5748 5745 5742 5741
5795 5796 5798 5801 5803 5805 5805 5807 5809 5809 5808 5808 5809 5809 5810 5810 5810 5809 5809 5809 5809 5808 5807 5806 5805 5804 5803 5801 5800 5799 5797 5796 5795 5794 5792 5790 5788 5786 5785 5783 5781 5780 5778 5776 5774 5773 5771 5769 5768 5767 5765 5763 5762 5760 5759 5756 5752 5749 5748 5746 5743 5741 5739
5794 5795 5797 5800 5803 5803 5802 5804 5806 5807 5806 5806 5807 5807 5808 5808 5807 5807 5807 5807 5806 5806 5805 5804 5803 5802 5800 5799 5797 5796 5795 5794 5792 5791 5789 5787 5785 5783 5782 5780 5778 5777 5775 5773 5771 5770 5768 5766 5765 5764 5762 5760 5758 5756 5755 5754 5750 5746 5745 5743 5740 5738 5737
5792 5794 5796 5799 5800 5800 5800 5802 5804 5805 5805 5805 5805 5805 5805 5805 5805 5805 5805 5805 5804 5803 5803 5802 5800 5799 5798 5796 5795 5794 5792 5791 5789 5788 5786 5784 5782 5780 5779 5777 5775 5774 5772 5770 5769 5767 5765 5763 5762 5760 5759 5757 5756 5753 5751 5750 5747 5743 5741 5740 5737 5735 5734
5790 5792 5795 5797 5798 5797 5798 5800 5802 5802 5802 5802 5803 5803 5803 5803 5803 5803 5803 5802 5801 5801 5800 5799 5798 5796 5795 5794 5793 5791 5790 5788 5786 5785 5783 5781 5779 5777 5775 5774 5772 5771 5769 5767 5765 5763 5762 5760 5759 5757 5756 5754 5753 5751 5748 5747 5745 5741 5738 5737 5735 5733 5731
5789 5791 5793 5794 5795 5795 5796 5798 5799 5799 5800 5800 5801 5801 5801 5801 5801 5801 5800 5799 5799 5798 5797 5796 5795 5794 5793 5791 5790 5789 5787 5785 5784 5782 5780 5778 5776 5775 5773 5771 5769 5768 5766 5765 5763 5761 5759 5757 5755 5754 5753 5751 5749 5748 5746 5744 5742 5739 5736 5734 5733 5731 5728
5788 5789 5791 5792 5792 5793 5795 5796 5797 5797 5798 5798 5799 5799 5799 5799 5799 5798 5797 5797 5796 5795 5794 5793 5792 5791 5790 5789 5787 5786 5784 5782 5781 5779 5777 5775 5773 5771 5770 5768 5766 5765 5763 5762 5760 5758 5756 5754 5752 5750 5749 5748 5746 5745 5743 5741 5740 5738 5734 5731 5730 5728 5726
5786 5787 5788 5789 5790 5791 5793 5794 5795 5795 5796 5797 5797 5797 5797 5797 5797 5796 5795 5794 5793 5792 5791 5790 5789 5788 5787 5786 5784 5783 5781 5779 5778 5776 5774 5772 5770 5768 5766 5765 5763 5762 5760 5759 5757 5755 5753 5751 5749 5747 5746 5745 5743 5742 5741 5739 5737 5735 5733 5729 5727 5726 5724
5784 5785 5786 5788 5789 5790 5790 5791 5792 5793 5794 5795 5795 5795 5795 5795 5794 5793 5792 5791 5790 5789 5788 5788 5787 5785 5784 5782 5781 5779 5778 5776 5774 5773 5771 5769 5767 5765 5763 5762 5760 5758 5757 5755 5753 5752 5750 5748 5746 5744 5743 5742 5740 5739 5738 5736 5734 5732 5730 5728 5725 5724 5721
5782 5784 5785 5786 5787 5788 5788 5789 5790 5791 5792 5792 5793 5793 5793 5792 5791 5790 5789 5788 5787 5787 5786 5785 5784 5782 5781 5779 5778 5776 5774 5773 5771 5769 5768 5766 5764 5762 5760 5758 5757 5755 5753 5752 5750 5748 5747 5745 5743 5741 5740 5738 5737 5736 5735 5733 5732 5730 5728 5726 5723 5721 5719
5781 5783 5784 5784 5785 5786 5787 5788 5789 5789 5790 5790 5791 5791 5790 5790 5789 5788 5787 5786 5785 5784 5783 5782 5780 5779 5778 5776 5774 5773 5771 5770 5768 5766 5764 5763 5761 5759 5757 5755 5754 5752 5750 5749 5747 5745 5744 5742 5740 5738 5737 5735 5734 5733 5732 5730 5729 5727 5725 5723 5721 5719 5717
5780 5781 5782 5783 5783 5784 5785 5786 5787 5788 5788 5788 5788 5788 5788 5787 5786 5785 5784 5783 5782 5781 5780 5778 5777 5776 5774 5773 5771 5770 5769 5767 5765 5763 5761 5759 5758 5756 5754 5752 5751 5749 5747 5746 5744 5742 5741 5739 5737 5736 5734 5732 5731 5730 5728 5727 5726 5724 5722 5720 5718 5716 5715
5778 5780 5781 5781 5782 5782 5783 5784 5785 5786 5786 5786 5786 5786 5785 5784 5783 5782 5781 5780 5779 5777 5776 5775 5774 5772 5771 5770 5768 5767 5766 5764 5763 5760 5758 5757 5755 5753 5751 5750 5748 5746 5744 5743 5741 5739 5737 5736 5734 5733 5731 5730 5728 5727 5725 5724 5723 5721 5719 5717 5716 5714 5712
5776 5777 5778 5779 5780 5780 5781 5782 5783 5783 5783 5784 5783 5783 5782 5781 5780 5779 5778 5777 5775 5774 5773 5772 5771 5769 5768 5767 5765 5764 5763 5761 5760 5758 5756 5754 5752 5751 5749 5747 5745 5743 5742 5740 5738 5736 5735 5733 5731 5730 5728 5727 5725 5724 5722 5721 5720 5718 5717 5715 5713 5711 5710
5774 5775 5776 5777 5777 5778 5779 5780 5780 5781 5781 5781 5781 5780 5779 5779 5777 5776 5775 5773 5772 5771 5770 5769 5767 5766 5765 5764 5763 5761 5760 5758 5757 5755 5753 5751 5750 5748 5746 5744 5743 5741 5739 5737 5736 5734 5732 5730 5728 5727 5725 5724 5722 5721 5719 5718 5717 5715 5714 5712 5710 5709 5707
5772 5773 5773 5774 5775 5775 5776 5777 5777 5778 5778 5778 5778 5777 5776 5775 5774 5773 5771 5770 5769 5768 5767 5766 5764 5763 5762 5761 5760 5758 5757 5755 5754 5752 5750 5748 5747 5745 5743 5742 5740 5738 5736 5734 5733 5731 5729 5727 5726 5724 5722 5721 5720 5718 5717 5715 5714 5712 5711 5710 5708 5706 5705
5770 5770 5771 5771 5772 5773 5774 5774 5775 5775 5775 5775 5774 5774 5773 5772 5770 5769 5768 5767 5766 5765 5764 5763 5762 5761 5760 5758 5757 5756 5754 5752 5751 5749 5747 5745 5744 5742 5740 5738 5737 5735 5733 5731 5730 5728 5726 5724 5723 5721 5719 5718 5717 5715 5714 5712 5711 5709 5708 5707 5705 5704 5702
5767 5768 5768 5769 5769 5770 5771 5771 5772 5772 5771 5771 5771 5770 5769 5768 5767 5766 5765 5764 5763 5762 5761 5760 5759 5758 5757 5755 5754 5753 5751 5749 5748 5746 5744 5742 5741 5739 5737 5735 5733 5731 5730 5728 5726 5725 5723 5721 5720 5718 5717 5715 5714 5712 5711 5709 5708 5706 5705 5704 5703 5701 5700
5764 5764 5765 5766 5767 5767 5768 5768 5769 5768 5768 5768 5767 5767 5766 5765 5764 5763 5762 5761 5761 5759 5758 5758 5757 5755 5754 5752 5751 5750 5748 5746 5745 5743 5741 5739 5737 5735 5734 5731 5730 5728 5726 5725 5723 5721 5720 5718 5717 5716 5714 5712 5711 5710 5708 5707 5705 5704 5702 5701 5700 5699 5697
5761 5761 5762 5764 5764 5765 5765 5765 5765 5765 5765 5765 5764 5764 5763 5762 5761 5760 5760 5759 5758 5757 5756 5755 5754 5752 5751 5749 5748 5747 5745 5743 5742 5740 5738 5736 5734 5732 5730 5728 5727 5725 5723 5722 5720 5718 5717 5715 5714 5712 5711 5709 5708 5706 5705 5704 5702 5701 5699 5698 5697 5696 5695
5759 5759 5760 5761 5762 5762 5762 5762 5762 5761 5761 5761 5761 5761 5760 5759 5758 5757 5757 5755 5754 5754 5753 5752 5751 5750 5748 5746 5744 5744 5742 5740 5739 5737 5735 5733 5731 5729 5728 5726 5724 5722 5720 5719 5717 5715 5714 5712 5711 5709 5707 5706 5705 5703 5702 5700 5699 5698 5696 5695 5694 5693 5692
5756 5756 5757 5757 5758 5758 5759 5758 5758 5758 5758 5758 5758 5757 5757 5756 5755 5754 5753 5752 5752 5751 5750 5749 5748 5747 5745 5743 5741 5740 5739 5737 5736 5734 5732 5730 5729 5727 5725 5723 5721 5719 5718 5716 5714 5713 5711 5709 5708 5706 5704 5703 5701 5700 5699 5697 5696 5695 5693 5692 5691 5690 5689
5752 5753 5754 5754 5755 5755 5755 5755 5755 5756 5755 5755 5755 5754 5754 5753 5752 5751 5750 5750 5749 5748 5747 5746 5744 5743 5742 5741 5738 5737 5736 5734 5733 5731 5729 5727 5726 5724 5722 5720 5718 5717 5715 5713 5711 5710 5708 5706 5705 5703 5701 5700 5698 5697 5696 5694 5693 5692 5690 5689 5687 5686 5685
5749 5750 5751 5751 5752 5752 5752 5753 5753 5752 5752 5752 5751 5751 5751 5750 5749 5748 5747 5746 5746 5745 5744 5743 5741 5740 5739 5738 5736 5734 5733 5731 5730 5728 5726 5725 5723 5721 5719 5717 5716 5714 5712 5710 5709 5707 5705 5703 5702 5700 5698 5697 5695 5694 5692 5691 5689 5688 5687 5685 5684 5683 5682
5747 5748 5748 5749 5749 5749 5750 5750 5749 5749 5749 5748 5748 5748 5747 5747 5746 5745 5744 5743 5742 5741 5740 5739 5738 5737 5736 5734 5733 5732 5730 5728 5727 5725 5723 5722 5720 5718 5716 5715 5713 5711 5709 5708 5706 5704 5702 5700 5699 5697 5695 5693 5692 5690 5688 5687 5685 5684 5683 5681 5680 5679 5678
5745 5745 5746 5746 5746 5746 5746 5746 5746 5746 5746 5745 5745 5745 5744 5743 5743 5742 5741 5740 5739 5738 5737 5736 5735 5734 5733 5731 5730 5729 5727 5725 5724 5722 5720 5719 5717 5716 5714 5712 5710 5708 5706 5705 5703 5701 5699 5697 5696 5694 5692 5690 5688 5687 5685 5683 5682 5680 5679 5678 5676 5675 5674
5742 5742 5743 5743 5743 5743 5743 5742 5743 5743 5743 5742 5742 5741 5741 5740 5739 5738 5738 5737 5736 5735 5734 5733 5732 5731 5730 5728 5727 5725 5724 5722 5721 5719 5718 5716 5714 5713 5711 5709 5707 5705 5703 5701 5700 5698 5696 5694 5692 5690 5689 5687 5685 5683 5682 5680 5678 5677 5675 5674 5673 5672 5670
5739 5739 5739 5739 5739 5739 5739 5739 5740 5740 5739 5739 5738 5738 5737 5737 5736 5735 5735 5734 5734 5733 5731 5730 5729 5728 5727 5725 5724 5722 5721 5719 5718 5716 5715 5713 5712 5710 5708 5706 5704 5702 5700 5698 5696 5694 5693 5691 5689 5687 5685 5684 5682 5680 5679 5677 5675 5674 5672 5671 5670 5668 5667
5734 5735 5735 5735 5736 5736 5735 5736 5736 5736 5735 5735 5735 5734 5734 5733 5733 5733 5732 5731 5731 5730 5729 5727 5726 5725 5724 5722 5721 5720 5718 5716 5715 5713 5712 5710 5709 5707 5705 5703 5701 5699 5696 5694 5693 5691 5689 5687 5686 5684 5682 5681 5679 5677 5676 5674 5672 5671 5669 5667 5666 5665 5664